Regional Weather Roundup
Issued by NWS

Home | Current Version | Previous Version | Text Only | Print | Product List | Glossary Off
Versions: 1 2 3 4 5 6 7 8 9 10 11 12 13 14 15 16 17 18 19 20 21 22 23 24 25 26 27 28 29 30 31 32 33 34 35 36 37 38 39 40 41 42 43 44 45 46 47 48 49 50

000
ASUS44 KMEG 080400
RWRTN
TENNESSEE HOURLY STATE WEATHER ROUNDUP
NATIONAL WEATHER SERVICE MEMPHIS TN
1100 PM CDT TUE JUL 07 2015

TNZ002-004-019-021-049-052-054-088>092-080500-
WEST TENNESSEE

CITY           SKY/WX    TMP DP  RH WIND       PRES   REMARKS
MEMPHIS INTL   CLOUDY    83  74  74 S14G20    30.04F
NWS MEMPHIS      N/A     82 N/A N/A MISG        N/A
JACKSON        CLOUDY    75  71  87 SE3       30.08S
DYERSBURG        N/A    N/A N/A N/A MISG        N/A
PARIS          PTCLDY    70  68  94 CALM      30.08F
LEXINGTON      PTCLDY    75  70  83 NW5       30.10R
$$

TNZ008-025-027-028-033-062-065-066-080500-
NORTH MIDDLE TENNESSEE

CITY           SKY/WX    TMP DP  RH WIND       PRES   REMARKS
NASHVILLE      RAIN      72  71  97 VRB5      30.13R FOG
CLARKSVILLE    LGT RAIN  72  70  93 S8        30.09F FOG
COOKEVILLE     CLEAR     73  72  94 CALM      30.13R
CROSSVILLE     CLOUDY    70  65  84 CALM      30.19R
$$

TNZ061-075-076-078-094-096-097-080500-
SOUTH MIDDLE TENNESSEE

CITY           SKY/WX    TMP DP  RH WIND       PRES   REMARKS
FAYETTEVILLE   CLEAR     77  70  78 S5        30.15R
TULLAHOMA        N/A     75  70  83 CALM      30.16R
WINCHESTER     CLEAR     75  72  88 SE3       30.15S
COLUMBIA       CLEAR     79  73  83 SW5       30.09S
SHELBYVILLE    CLEAR     79  73  83 S3          N/A
$$

TNZ017-018-042-046-047-080500-
NORTHEAST TENNESSEE

CITY           SKY/WX    TMP DP  RH WIND       PRES   REMARKS
TRI CITIES     MOCLDY    73  69  87 CALM      30.15R
ELIZABETHTON   CLEAR     68  64  88 CALM      30.17S
$$

TNZ012-013-036-069-073-074-080500-
CENTRAL EAST TENNESSEE

CITY           SKY/WX    TMP DP  RH WIND       PRES   REMARKS
KNOXVILLE      MOCLDY    79  69  71 SW10      30.13R
OAK RIDGE      CLOUDY    78  65  63 VRB5G16   30.17R
GATLINBURG     CLEAR     73  66  78 CALM      30.13R
$$

TNZ083-085-099-080500-
SOUTHEAST TENNESSEE

CITY           SKY/WX    TMP DP  RH WIND       PRES   REMARKS
CHATTANOOGA    MOCLDY    80  72  76 S6        30.14R
$$

SKY/WX REPORTED AS FAIR MEANS FEW OR NO CLOUDS BELOW
12 THOUSAND FEET.




USA.gov is the U.S. government's official web portal to all federal, state and local government web resources and services.